15 daagse weersverwachting LillestrÝm (NO)

  • Overzicht
  • Per uur
  • 15 dagen
  • Extra
  • Vergelijk
  • Kaarten
  • Dagkaart
  • Meer »
  • Info
  • Statistieken
  • Directe link
    Temp 6h Neerslag Wind  
 04:35     22:11    Daglengte: 17:36 Vandaag
02:00
15°
 
1
08:00
16°
6.2 mm
2
14:00
17°
29.2 mm
2
20:00
17°
27.4 mm
1
 04:37     22:09    Daglengte: 17:32 Morgen
02:00
15°
 
2
08:00
16°
 
1
14:00
21°
 
4
20:00
17°
 
4
 04:39     22:07    Daglengte: 17:28 Dinsdag 23 Jul
02:00
16°
 
2
08:00
17°
 
2
14:00
23°
 
2
20:00
23°
 
3
Locatie info
Region: Akershus
Latitude: 59.9570°N
Longitude: 11.0483°E
116 masl
Postcode: 2000
Temp/Neerslag /Baro Onweer/Dauwpunt
    Temp Baro 1h Neerslag Dauwpunt Wind UV Bewolking  
 04:35     22:11    Daglengte: 17:36 Vandaag
01:00
15°
1011.3 hPa   12.6°
1
Windvlaag: 1.7 km/h
85%
02:00
15°
1010.9 hPa   12.8°
1
Windvlaag: 2 km/h
85%
03:00
15°
1010.6 hPa   13.0°
1
Windvlaag: 1.9 km/h
81%
04:00
15°
1010.1 hPa   13.5°
1
Windvlaag: 1.2 km/h
83%
05:00
15°
1009.6 hPa   13.8°
1
Windvlaag: 1.1 km/h
91%
06:00
15°
1009.2 hPa 2.0 mm
33%
14.6°
1
Windvlaag: 0.6 km/h
91%
07:00
15°
1009.1 hPa 1.8 mm
82%
14.8°
1
Windvlaag: 0.6 km/h
91%
08:00
16°
1008.9 hPa 2.4 mm
82%
15.2°
2
Windvlaag: 1.7 km/h
91%
09:00
16°
1008.8 hPa 4.7 mm
82%
15.4°
2
Windvlaag: 2.4 km/h
91%
10:00
16°
1008.9 hPa 5.5 mm
82%
15.2°
2
Windvlaag: 3.7 km/h
91%
11:00
16°
1008.9 hPa 3.8 mm
82%
15.4°
2
Windvlaag: 3.6 km/h
91%
12:00
16°
1008.9 hPa 6.0 mm
82%
15.5°
2
Windvlaag: 4 km/h
91%
13:00
16°
1008.9 hPa 5.0 mm
82%
15.5°
2
Windvlaag: 3.5 km/h
91%
14:00
17°
1009.0 hPa 4.3 mm
82%
15.8°
2
Windvlaag: 4 km/h
91%
15:00
17°
1009.1 hPa 4.1 mm
82%
16.1°
2
Windvlaag: 3.6 km/h
89%
16:00
17°
1009.3 hPa 4.0 mm
82%
16.2°
2
Windvlaag: 3.9 km/h
90%
17:00
17°
1009.4 hPa 4.5 mm
82%
15.7°
2
Windvlaag: 4.6 km/h
91%
18:00
17°
1009.4 hPa 4.1 mm
82%
16.0°
2
Windvlaag: 4.5 km/h
91%
19:00
17°
1009.5 hPa 5.4 mm
77%
15.5°
1
Windvlaag: 4.3 km/h
90% warningclass
20:00
17°
1009.8 hPa 5.3 mm
74%
15.5°
1
Windvlaag: 4.5 km/h
89%
21:00
16°
1009.9 hPa
21%
15.4°
1
Windvlaag: 3.1 km/h
88%
22:00
16°
1010.2 hPa
63%
15.3°
1
Windvlaag: 2 km/h
77%
23:00
16°
1010.5 hPa
64%
15.3°
1
Windvlaag: 2.8 km/h
73%
 04:37     22:09    Daglengte: 17:32 Morgen
00:00
16°
1010.8 hPa
62%
15.0°
1
Windvlaag: 2.9 km/h
65%
01:00
15°
1011.0 hPa
60%
14.9°
1
Windvlaag: 2.7 km/h
59%
02:00
15°
1011.1 hPa
15%
14.6°
2
Windvlaag: 2.6 km/h
41%
03:00
15°
1011.3 hPa
14%
14.3°
1
Windvlaag: 2.4 km/h
42%
04:00
15°
1011.3 hPa
14%
13.9°
1
Windvlaag: 2.4 km/h
57%
05:00
15°
1011.5 hPa
14%
13.7°
1
Windvlaag: 2.3 km/h
59%
06:00
15°
1011.7 hPa
14%
13.6°
1
Windvlaag: 2.1 km/h
67%
07:00
15°
1011.8 hPa
14%
13.4°
1
Windvlaag: 2.8 km/h
62%
08:00
16°
1011.9 hPa
14%
13.7°
1
Windvlaag: 2.6 km/h
52%
09:00
17°
1012.2 hPa
51%
13.8°
1
Windvlaag: 1.7 km/h
32%
10:00
18°
1012.3 hPa
61%
13.8°
2
Windvlaag: 4.1 km/h
48%
11:00
19°
1012.6 hPa
55%
13.6°
2
Windvlaag: 5.4 km/h
37%
12:00
20°
1012.7 hPa
16%
13.1°
3
Windvlaag: 5.4 km/h
11%
13:00
21°
1012.6 hPa
52%
12.4°
3
Windvlaag: 6.2 km/h
28%
14:00
21°
1012.5 hPa
19%
12.1°
4
Windvlaag: 6.6 km/h
34%
15:00
21°
1012.5 hPa
14%
12.9°
4
Windvlaag: 7.2 km/h
51%
16:00
21°
1012.5 hPa
14%
14.1°
5
Windvlaag: 7.8 km/h
70%
17:00
20°
1013.0 hPa
21%
14.9°
5
Windvlaag: 8.6 km/h
74%
18:00
19°
1013.1 hPa
87%
15.0°
5
Windvlaag: 8.6 km/h
85%
19:00
18°
1012.9 hPa
100%
14.7°
4
Windvlaag: 7.9 km/h
95%
20:00
17°
1013.1 hPa
100%
14.4°
4
Windvlaag: 6.7 km/h
100%
21:00
17°
1013.3 hPa
100%
14.6°
3
Windvlaag: 6.2 km/h
99%
22:00
16°
1013.8 hPa
100%
14.7°
3
Windvlaag: 5.2 km/h
93%
23:00
16°
1013.9 hPa
100%
14.5°
3
Windvlaag: 5.3 km/h
98%
 04:39     22:07    Daglengte: 17:28 Dinsdag 23 Jul
00:00
16°
1014.3 hPa
100%
14.6°
3
Windvlaag: 5 km/h
99%
01:00
16°
1014.6 hPa
47%
14.9°
3
Windvlaag: 4.6 km/h
100%
02:00
16°
1014.6 hPa
89%
14.8°
2
Windvlaag: 4.4 km/h
99%
03:00
16°
1014.8 hPa
44%
14.6°
2
Windvlaag: 4.1 km/h
94%
04:00
16°
1015.0 hPa
72%
14.7°
2
Windvlaag: 3.8 km/h
93%
05:00
16°
1015.2 hPa
41%
15.1°
1
Windvlaag: 3.4 km/h
94%
06:00
16°
1015.4 hPa
31%
14.9°
1
Windvlaag: 2.8 km/h
91%
07:00
16°
1015.9 hPa
26%
14.5°
1
Windvlaag: 3.2 km/h
89%
08:00
17°
1016.1 hPa
21%
14.6°
2
Windvlaag: 3.5 km/h
85%
09:00
18°
1016.6 hPa
21%
14.6°
2
Windvlaag: 4 km/h
80%
10:00
18°
1016.9 hPa
23%
14.6°
2
Windvlaag: 4 km/h
75%
11:00
19°
1017.3 hPa
27%
14.9°
1
Windvlaag: 4.1 km/h
81%
12:00
20°
1017.4 hPa
22%
15.0°
2
Windvlaag: 4.1 km/h
56%
13:00
21°
1017.5 hPa
21%
15.0°
2
Windvlaag: 4.4 km/h
38%
14:00
23°
1017.5 hPa
21%
15.3°
2
Windvlaag: 4.8 km/h
27%
15:00
23°
1017.1 hPa
21%
16.1°
2
Windvlaag: 6.4 km/h
10%
16:00
23°
1017.0 hPa
21%
16.5°
2
Windvlaag: 6 km/h
9%
17:00
24°
1016.9 hPa
21%
16.9°
2
Windvlaag: 5.9 km/h
7%
18:00
23°
1016.8 hPa
21%
17.2°
3
Windvlaag: 5.4 km/h
6%
19:00
23°
1016.7 hPa
21%
17.3°
3
Windvlaag: 5.5 km/h
4%
20:00
23°
1016.7 hPa
21%
17.1°
3
Windvlaag: 0.8 km/h
2%
21:00
22°
1017.8 hPa 28.0 mm
100%
17.0°
3
Windvlaag: 5.6 km/h
9%
22:00
20°
1018.0 hPa 28.0 mm
100%
16.7°
2
Windvlaag: 5.5 km/h
13%
23:00
19°
1018.2 hPa 28.0 mm
100%
16.4°
2
Windvlaag: 5.5 km/h
17%
 04:42     22:05    Daglengte: 17:23 Woensdag 24 Jul
00:00
18°
1018.4 hPa 28.0 mm
100%
15.8°
2
Windvlaag: 8.8 km/h
22%
Temp/Neerslag /Baro Onweer/Dauwpunt
    Temp Baro Neerslag Dauwpunt Wind Bewolking  
 04:35     22:11    Daglengte: 17:36 Vandaag
02:00
15°
1010.9 hPa   12.8°
1
85%
05:00
15°
1009.6 hPa   13.8°
1
91%
08:00
16°
1008.9 hPa 6.2 mm 15.2°
2
91%
11:00
16°
1008.9 hPa 13.9 mm 15.4°
2
91%
14:00
17°
1009.0 hPa 15.3 mm 15.8°
2
91%
17:00
17°
1009.4 hPa 12.6 mm 15.7°
2
91%
20:00
17°
1009.8 hPa 14.8 mm 15.5°
1
89%
23:00
16°
1010.5 hPa   15.3°
1
73%
 04:37     22:09    Daglengte: 17:32 Morgen
02:00
15°
1011.1 hPa   14.6°
2
41%
05:00
15°
1011.5 hPa   13.7°
1
59%
08:00
16°
1011.9 hPa   13.7°
1
52%
11:00
19°
1012.6 hPa   13.6°
2
37%
14:00
21°
1012.5 hPa   12.1°
4
34%
17:00
20°
1013.0 hPa   14.9°
5
74%
20:00
17°
1013.1 hPa   14.4°
4
100%
23:00
16°
1013.9 hPa   14.5°
3
98%
 04:39     22:07    Daglengte: 17:28 Dinsdag 23 Jul
02:00
16°
1014.6 hPa   14.8°
2
99%
05:00
16°
1015.2 hPa   15.1°
1
94%
08:00
17°
1016.1 hPa   14.6°
2
85%
11:00
19°
1017.3 hPa   14.9°
1
81%
14:00
23°
1017.5 hPa   15.3°
2
27%
17:00
24°
1016.9 hPa   16.9°
2
7%
20:00
23°
1016.7 hPa   17.1°
3
2%
23:00
19°
1018.2 hPa 83.9 mm 16.4°
2
17%
 04:42     22:05    Daglengte: 17:23 Woensdag 24 Jul
02:00
16°
1018.8 hPa 83.9 mm 14.8°
1
30%
05:00
17°
1019.1 hPa 20.8 mm 15.2°
1
65%
08:00
18°
1019.2 hPa 20.8 mm 15.5°
1
81%
11:00
22°
1018.9 hPa 20.8 mm 16.8°
2
41%
14:00
27°
1018.7 hPa 20.8 mm 16.8°
2
1%
17:00
25°
1018.6 hPa 20.8 mm 17.1°
2
4%
20:00
23°
1018.5 hPa 20.8 mm 17.2°
3
6%
23:00
19°
1019.5 hPa 20.8 mm 16.5°
2
38%
 04:44     22:03    Daglengte: 17:19 Donderdag 25 Jul
02:00
16°
1020.4 hPa 20.8 mm 15.5°
1
70%
05:00
16°
1020.8 hPa 20.8 mm 15.5°
1
79%
08:00
18°
1021.3 hPa 20.8 mm 15.6°
1
89%
11:00
22°
1021.4 hPa 20.8 mm 17.1°
2
47%
14:00
27°
1021.4 hPa 20.8 mm 17.5°
3
5%
17:00
26°
1020.7 hPa 20.8 mm 17.6°
2
3%
20:00
24°
1020.1 hPa 20.8 mm 17.6°
2
1%
23:00
20°
1020.5 hPa 20.8 mm 16.9°
2
0%
 04:46     22:01    Daglengte: 17:15 Vrijdag 26 Jul
02:00
17°
1020.9 hPa 20.8 mm 15.6°
1
0%
05:00
19°
1020.7 hPa 20.8 mm 16.2°
1
3%
08:00
21°
1020.5 hPa 20.8 mm 16.8°
1
6%
11:00
25°
1019.9 hPa 20.8 mm 17.4°
2
7%
14:00
29°
1019.2 hPa 20.8 mm 16.8°
3
7%
17:00
28°
1018.7 hPa 20.8 mm 18.0°
2
4%
20:00
26°
1018.2 hPa 20.8 mm 18.8°
2
2%
23:00
22°
1018.7 hPa 20.8 mm 17.6°
1
3%
 04:48     21:58    Daglengte: 17:10 Zaterdag 27 Jul
02:00
19°
1019.1 hPa 20.8 mm 16.3°
1
5%
05:00
20°
1018.7 hPa 20.8 mm 16.6°
1
5%
08:00
21°
1018.1 hPa 20.8 mm 17.0°
1
5%
11:00
25°
1017.6 hPa 20.9 mm 17.2°
3
27%
14:00
28°
1017.1 hPa 22.4 mm 16.7°
4
50%
17:00
27°
1017.2 hPa 24.3 mm 17.3°
3
29%
20:00
25°
1017.3 hPa 27.1 mm 17.6°
2
7%
23:00
22°
1017.9 hPa   16.7°
2
5%
 04:50     21:56    Daglengte: 17:06 Zondag 28 Jul
02:00
18°
1018.5 hPa 56.5 mm 15.3°
2
4%
08:00
19°
1016.2 hPa 56.6 mm 16.0°
3
41%
14:00
25°
1014.7 hPa 56.6 mm 15.2°
3
54%
20:00
22°
1014.3 hPa 56.6 mm 15.7°
3
51%
 04:53     21:54    Daglengte: 17:01 Maandag 29 Jul
02:00
16°
1016.9 hPa 56.6 mm 14.6°
1
3%
08:00
19°
1017.8 hPa 56.6 mm 13.7°
2
1%
14:00
26°
1019.1 hPa 56.6 mm 12.1°
4
2%
20:00
23°
1016.6 hPa 56.6 mm 15.7°
3
4%
 04:55     21:51    Daglengte: 16:56 Dinsdag 30 Jul
02:00
16°
1017.6 hPa 56.6 mm 13.0°
2
1%
08:00
17°
1015.8 hPa 56.6 mm 14.0°
3
51%
14:00
23°
1020.0 hPa 56.6 mm 5.7°
3
0%
20:00
21°
1012.8 hPa 0.3 mm 13.5°
3
28%
 04:57     21:49    Daglengte: 16:52 Woensdag 31 Jul
02:00
14°
1013.7 hPa   11.5°
1
20%
08:00
16°
1013.5 hPa   11.9°
0
31%
14:00
22°
1012.1 hPa 0.9 mm 12.2°
2
36%
20:00
20°
1010.6 hPa 1.9 mm 13.6°
1
41%
 05:00     21:46    Daglengte: 16:46 Donderdag 01 Aug
02:00
14°
1011.3 hPa 1.4 mm 11.3°
0
27%
08:00
15°
1011.1 hPa 0.4 mm 11.4°
0
35%
14:00
21°
1010.2 hPa 0.2 mm 11.4°
2
36%
20:00
20°
1009.3 hPa 0.4 mm 11.6°
2
31%
 05:02     21:44    Daglengte: 16:42 Vrijdag 02 Aug
02:00
13°
1010.7 hPa   9.4°
1
24%
08:00
14°
1010.3 hPa 0.3 mm 9.7°
0
30%
14:00
20°
1009.0 hPa 0.2 mm 9.7°
1
35%
20:00
19°
1007.9 hPa 0.6 mm 11.2°
2
35%
 05:04     21:41    Daglengte: 16:37 Zaterdag 03 Aug
02:00
13°
1009.7 hPa 0.8 mm 9.7°
0
30%
08:00
14°
1009.8 hPa 0.8 mm 10.6°
1
39%
14:00
20°
1009.0 hPa 0.8 mm 10.3°
1
34%
20:00
18°
1008.3 hPa 0.8 mm 11.9°
1
39%
 05:07     21:39    Daglengte: 16:32 Zondag 04 Aug
02:00
12°
1009.8 hPa 0.5 mm 9.6°
0
28%
08:00
14°
1009.7 hPa 0.7 mm 9.8°
0
31%
14:00
19°
1009.1 hPa 0.7 mm 9.7°
1
38%
20:00
18°
1008.4 hPa 1.3 mm 11.5°
1
38%
  CAPE Lifted Index Hail Supercell Tornado SRH 3km CL BTM PRES CL TOP PRES Swiss DWD icon SMHI TS
 04:35     22:11    Daglengte: 17:36 Vandaag
01:00 0 J/kg 0.2 K 0 % 0 % 0 % 0 m²/s² 0 0 0.47 3
02:00 0 J/kg 1.1 K 0 % 0 % 0 % 0 m²/s² 0 0 1.4 3
03:00 0 J/kg 2.3 K 0 % 0 % 0 % 0 m²/s² 0 0 2.57 3
04:00 0 J/kg 2.9 K 0 % 0 % 0 % 0 m²/s² 0 0 2.99 3
05:00 0 J/kg 1.9 K 0 % 0 % 0 % 0 m²/s² 0 0 1.93 3
06:00 0 J/kg 1.9 K 0 % 0 % 0 % 0 m²/s² 0 0 1.9 3
07:00 0 J/kg 1.5 K 0 % 0 % 0 % 0 m²/s² 0 0 1.5 61
08:00 1 J/kg 1.8 K 0 % 0 % 0 % 0 m²/s² 0 0 1.8 61
09:00 28 J/kg 2.1 K 0 % 0 % 0 % 0 m²/s² 0 0 2.1 63
10:00 11 J/kg 2.8 K 0 % 0 % 0 % 0 m²/s² 0 0 2.89 61
11:00 6 J/kg 2.5 K 0 % 0 % 0 % 0 m²/s² 0 0 2.59 61
12:00 3 J/kg 2.1 K 0 % 0 % 0 % 0 m²/s² 0 0 2.19 61
13:00 47 J/kg 1.4 K 0 % 0 % 0 % 0 m²/s² 0 0 1.49 80
14:00 243 J/kg -0.4 K 0 % 0 % 0 % 0 m²/s² 0 0 -0.31 80
15:00 394 J/kg -1.3 K 0 % 0 % 0 % 0 m²/s² 0 0 -1.03 80
16:00 530 J/kg -2.0 K 0 % 0 % 0 % 0 m²/s² 0 0 -1.82 80
17:00 481 J/kg -2.0 K 0 % 0 % 0 % 0 m²/s² 0 0 -1.7 80
18:00 489 J/kg -2.1 K 0 % 0 % 0 % 0 m²/s² 0 0 -1.68 3
19:00 540 J/kg -2.2 K 0 % 0 % 0 % 0 m²/s² 0 0 -2.02 3
20:00 541 J/kg -1.9 K 0 % 0 % 0 % 0 m²/s² 0 0 -1.78 3
21:00 430 J/kg -1.9 K 0 % 0 % 0 % 0 m²/s² 0 0 -1.42 3
22:00 307 J/kg -1.2 K 0 % 0 % 0 % 0 m²/s² 0 0 -0.99 3
23:00 185 J/kg -0.6 K 0 % 0 % 0 % 0 m²/s² 0 0 -0.12 3
 04:37     22:09    Daglengte: 17:32 Morgen
00:00 33 J/kg -0.1 K 0 % 0 % 0 % 0 m²/s² 0 0 0.74 3
01:00 0 J/kg 0.8 K 0 % 0 % 0 % 0 m²/s² 0 0 1.46 3
02:00 0 J/kg 1.3 K 0 % 0 % 0 % 0 m²/s² 0 0 2.32 2
03:00 0 J/kg 1.2 K 0 % 0 % 0 % 0 m²/s² 0 0 2.76 3
04:00 0 J/kg 1.2 K 0 % 0 % 0 % 0 m²/s² 0 0 4.05 3
05:00 0 J/kg 1.1 K 0 % 0 % 0 % 0 m²/s² 0 0 6.32 45
06:00 0 J/kg 1.3 K 0 % 0 % 0 % 0 m²/s² 0 0 7.63 45
07:00 0 J/kg 2.0 K 0 % 0 % 0 % 0 m²/s² 0 0 7.64 3
08:00 0 J/kg 3.1 K 0 % 0 % 0 % 0 m²/s² 0 0 8.17 3
09:00 0 J/kg 3.8 K 0 % 0 % 0 % 0 m²/s² 0 0 8.75 2
10:00 0 J/kg 3.5 K 0 % 0 % 0 % 0 m²/s² 0 0 8.45 2
11:00 0 J/kg 3.8 K 0 % 0 % 0 % 0 m²/s² 0 0 8.9 2
12:00 0 J/kg 5.2 K 0 % 0 % 0 % 0 m²/s² 0 0 10.3 1
13:00 0 J/kg 5.8 K 0 % 0 % 0 % 0 m²/s² 0 0 10.42 3
14:00 0 J/kg 6.4 K 0 % 0 % 0 % 0 m²/s² 0 0 10.18 3
15:00 0 J/kg 5.3 K 0 % 0 % 0 % 0 m²/s² 0 0 7.88 0
16:00 0 J/kg 4.5 K 0 % 0 % 0 % 0 m²/s² 0 0 5.76 3
17:00 7 J/kg 4.5 K 0 % 0 % 0 % 0 m²/s² 0 0 4.8 3
18:00 42 J/kg 4.7 K 0 % 0 % 0 % 0 m²/s² 0 0 4.79 3
19:00 33 J/kg 5.1 K 0 % 0 % 0 % 0 m²/s² 0 0 5.1 61
20:00 21 J/kg 5.2 K 0 % 0 % 0 % 0 m²/s² 0 0 5.2 61
21:00 7 J/kg 5.6 K 0 % 0 % 0 % 0 m²/s² 0 0 5.6 61
22:00 6 J/kg 4.5 K 0 % 0 % 0 % 0 m²/s² 0 0 4.5 61
23:00 2 J/kg 3.6 K 0 % 0 % 0 % 0 m²/s² 0 0 3.81 61
 04:39     22:07    Daglengte: 17:28 Dinsdag 23 Jul
00:00 5 J/kg 3.6 K 0 % 0 % 0 % 0 m²/s² 0 0 3.9 3
01:00 3 J/kg 3.9 K 0 % 0 % 0 % 0 m²/s² 0 0 4.47 3
02:00 1 J/kg 4.3 K 0 % 0 % 0 % 0 m²/s² 0 0 5.02 3
03:00 1 J/kg 4.7 K 0 % 0 % 0 % 0 m²/s² 0 0 5.87 3
04:00 1 J/kg 5.4 K 0 % 0 % 0 % 0 m²/s² 0 0 7.02 3
05:00 0 J/kg 6.6 K 0 % 0 % 0 % 0 m²/s² 0 0 8.82 3
06:00 0 J/kg 7.2 K 0 % 0 % 0 % 0 m²/s² 0 0 9.84 3
07:00 0 J/kg 8.0 K 0 % 0 % 0 % 0 m²/s² 0 0 10.91 3
08:00 0 J/kg 7.4 K 0 % 0 % 0 % 0 m²/s² 0 0 10.31 3
09:00 0 J/kg 6.8 K 0 % 0 % 0 % 0 m²/s² 0 0 9.8 3
10:00 6 J/kg 7.2 K 0 % 0 % 0 % 0 m²/s² 0 0 9.87 3
11:00 4 J/kg 6.6 K 0 % 0 % 0 % 0 m²/s² 0 0 9.03 2
12:00 3 J/kg 5.9 K 0 % 0 % 0 % 0 m²/s² 0 0 8.27 3
13:00 2 J/kg 5.1 K 0 % 0 % 0 % 0 m²/s² 0 0 7.05 2
14:00 2 J/kg 4.1 K 0 % 0 % 0 % 0 m²/s² 0 0 5.63 2
15:00 4 J/kg 3.0 K 0 % 0 % 0 % 0 m²/s² 0 0 4.47 1
16:00 21 J/kg 1.6 K 0 % 0 % 0 % 0 m²/s² 0 0 3.01 0
17:00 116 J/kg 0.0 K 0 % 0 % 0 % 0 m²/s² 0 0 1.56 0
18:00 406 J/kg -1.1 K 0 % 0 % 0 % 0 m²/s² 0 0 0.85 1
19:00 630 J/kg -2.0 K 0 % 0 % 0 % 0 m²/s² 0 0 0.79 2
20:00 766 J/kg -2.4 K 0 % 0 % 0 % 0 m²/s² 0 0 0.9 1
21:00 727 J/kg -2.3 K 0 % 0 % 0 % 0 m²/s² 0 0 1.18
22:00 433 J/kg -1.4 K 0 % 0 % 0 % 0 m²/s² 0 0 2.56
23:00 136 J/kg 0.1 K 0 % 0 % 0 % 0 m²/s² 0 0 4.48
 04:42     22:05    Daglengte: 17:23 Woensdag 24 Jul
00:00 0 J/kg 2.6 K 0 % 0 % 0 % 0 m²/s² 0 0 7.34
Temp Baro Wind Neerslag
  EWN Forecast EWN WRFDA DWD ICON FMI HIRLAM MET Norway GFS
 04:35     22:11    Daglengte: 17:36 Vandaag
02:00 15.5° 1010.9 hPa 1.3 m/s 0.0 mm 16.2° 1009.6 hPa 2.4 m/s 0.0 mm 15.6° 1011.1 hPa 1.2 m/s -1.2 mm 12.9° 1011.0 hPa 1.3 m/s 0.0 mm 17.1° 1010.4 hPa 0.8 m/s 0.0 mm 13.4° 1010.7 hPa 1.1 m/s
05:00 15.1° 1009.6 hPa 1.3 m/s 0.0 mm 13.6° 1008.4 hPa 1.5 m/s 0.0 mm 15.3° 1009.8 hPa 1.2 m/s 0.0 mm 13.6° 1009.7 hPa 1.7 m/s 0.0 mm 17.2° 1009.1 hPa 0.8 m/s 0.0 mm 13.5° 1009.6 hPa 0.7 m/s
08:00 15.6° 1008.9 hPa 1.5 m/s 6.2 mm 14.2° 1008.0 hPa 1.3 m/s 19.6 mm 15.7° 1008.9 hPa 1.6 m/s 2.8 mm 15.4° 1009.1 hPa 1.5 m/s 0.0 mm 17.1° 1008.7 hPa 1.4 m/s 2.1 mm 14.1° 1008.8 hPa 1.7 m/s
11:00 16.2° 1008.9 hPa 2.2 m/s 13.9 mm 14.4° 1008.5 hPa 3.4 m/s 51.6 mm 15.8° 1008.8 hPa 2.6 m/s 5.4 mm 16.3° 1009.0 hPa 2.4 m/s 0.0 mm 18.3° 1008.7 hPa 1.9 m/s 0.5 mm 14.8° 1008.8 hPa 3.0 m/s
14:00 16.7° 1009.0 hPa 2.1 m/s 15.3 mm 16.6° 1008.1 hPa 1.2 m/s 65.0 mm 15.9° 1009.2 hPa 2.0 m/s 1.9 mm 16.7° 1009.0 hPa 2.1 m/s 0.0 mm 17.8° 1009.0 hPa 2.5 m/s 14.6 mm 13.4° 1008.7 hPa 1.9 m/s
17:00 17.3° 1009.4 hPa 1.7 m/s 12.6 mm 16.9° 1008.6 hPa 1.6 m/s 72.1 mm 16.6° 1009.4 hPa 1.2 m/s 1.6 mm 17.1° 1009.0 hPa 1.6 m/s 0.0 mm 19.6° 1009.6 hPa 2.8 m/s 2.4 mm 13.9° 1009.1 hPa 1.4 m/s
20:00 16.7° 1009.8 hPa 1.3 m/s 14.8 mm 17.5° 1008.8 hPa 2.1 m/s 77.3 mm 16.3° 1009.9 hPa 1.2 m/s 0.7 mm 16.4° 1008.4 hPa 0.4 m/s 0.0 mm 18.1° 1010.5 hPa 2.3 m/s 0.0 mm 13.5° 1008.6 hPa 1.3 m/s
23:00 15.8° 1010.5 hPa 1.3 m/s 0.0 mm 15.1° 1010.0 hPa 3.1 m/s 77.9 mm 15.7° 1010.5 hPa 1.2 m/s 0.0 mm 14.9° 1008.7 hPa 0.8 m/s 0.0 mm 17.1° 1011.7 hPa 1.6 m/s 0.0 mm 13.1° 1010.2 hPa 1.5 m/s
 04:37     22:09    Daglengte: 17:32 Morgen
02:00 15.3° 1011.1 hPa 1.6 m/s 0.0 mm 13.6° 1010.1 hPa 3.3 m/s 78.0 mm 15.0° 1011.1 hPa 1.2 m/s 0.0 mm 15.6° 1008.6 hPa 1.7 m/s 0.0 mm 16.1° 1012.2 hPa 1.1 m/s 0.0 mm 13.2° 1010.9 hPa 0.9 m/s
05:00 14.9° 1011.5 hPa 1.2 m/s 0.0 mm 12.4° 1011.4 hPa 2.1 m/s 78.0 mm 14.9° 1011.6 hPa 0.7 m/s 0.0 mm 15.0° 1008.7 hPa 1.3 m/s 0.0 mm 16.2° 1012.5 hPa 1.0 m/s 0.0 mm 12.2° 1011.9 hPa 0.8 m/s
08:00 15.7° 1011.9 hPa 1.2 m/s 0.0 mm 14.8° 1011.9 hPa 0.8 m/s 78.0 mm 16.3° 1011.7 hPa 1.1 m/s 0.0 mm 15.1° 1009.4 hPa 1.6 m/s 0.0 mm 16.5° 1012.9 hPa 1.3 m/s 0.0 mm 15.5° 1012.0 hPa 0.8 m/s
11:00 19.0° 1012.6 hPa 2.4 m/s 0.0 mm 18.8° 1012.9 hPa 3.0 m/s 78.0 mm 19.4° 1012.2 hPa 2.3 m/s 0.0 mm 18.0° 1010.7 hPa 2.1 m/s 0.0 mm 19.5° 1013.2 hPa 3.0 m/s 0.0 mm 18.2° 1013.0 hPa 2.1 m/s
14:00 21.1° 1012.5 hPa 4.0 m/s 0.0 mm 20.7° 1012.8 hPa 4.5 m/s 78.0 mm 20.9° 1011.1 hPa 5.0 m/s 0.0 mm 22.1° 1011.6 hPa 1.8 m/s 0.0 mm 21.4° 1013.5 hPa 4.2 m/s 0.0 mm 20.9° 1012.8 hPa 3.8 m/s
17:00 20.2° 1013.0 hPa 4.8 m/s 0.0 mm 18.4° 1013.3 hPa 5.9 m/s 78.0 mm 19.7° 1011.3 hPa 5.5 m/s 0.0 mm 20.4° 1013.8 hPa 4.8 m/s 0.0 mm 20.0° 1012.7 hPa 4.9 m/s
20:00 17.5° 1013.1 hPa 3.6 m/s 0.0 mm 16.6° 1012.2 hPa 4.1 m/s 79.0 mm 15.8° 1010.9 hPa 4.4 m/s 1.2 mm 17.6° 1014.7 hPa 2.9 m/s 0.0 mm 15.2° 1011.9 hPa 3.2 m/s
23:00 16.0° 1013.9 hPa 3.1 m/s 0.0 mm 16.0° 1011.8 hPa 4.3 m/s 82.9 mm 15.4° 1011.5 hPa 3.1 m/s 3.6 mm 16.6° 1015.9 hPa 2.3 m/s 0.0 mm 15.5° 1011.9 hPa 2.7 m/s
 04:39     22:07    Daglengte: 17:28 Dinsdag 23 Jul
02:00 15.9° 1014.6 hPa 2.3 m/s 0.0 mm 15.7° 1011.1 hPa 4.0 m/s 83.9 mm 15.3° 1011.0 hPa 2.5 m/s 0.0 mm 16.8° 1016.4 hPa 1.8 m/s 0.0 mm 15.3° 1011.1 hPa 2.2 m/s
05:00 15.6° 1015.2 hPa 1.4 m/s 0.0 mm 14.1° 1011.7 hPa 2.8 m/s 83.9 mm 15.5° 1012.1 hPa 0.8 m/s 0.0 mm 16.4° 1016.8 hPa 1.4 m/s 0.0 mm 14.4° 1011.2 hPa 1.1 m/s
08:00 16.8° 1016.1 hPa 1.6 m/s 0.0 mm 17.7° 1012.0 hPa 2.9 m/s 83.9 mm 16.3° 1013.1 hPa 0.8 m/s 0.0 mm 16.9° 1018.1 hPa 1.6 m/s 0.0 mm 17.1° 1011.4 hPa 0.5 m/s
11:00 18.8° 1017.3 hPa 1.5 m/s 0.0 mm 22.0° 1013.3 hPa 2.4 m/s 83.9 mm 18.9° 1014.7 hPa 0.8 m/s 0.0 mm 18.6° 1019.0 hPa 1.3 m/s 0.0 mm 23.6° 1012.4 hPa 1.1 m/s
14:00 22.5° 1017.5 hPa 2.0 m/s 0.0 mm 24.4° 1013.5 hPa 3.3 m/s 83.9 mm 22.5° 1015.0 hPa 1.6 m/s 0.0 mm 22.7° 1019.5 hPa 1.7 m/s 0.0 mm 28.4° 1012.7 hPa 1.6 m/s
17:00 23.6° 1016.9 hPa 2.4 m/s 0.0 mm 25.8° 1013.6 hPa 4.3 m/s 83.9 mm 24.1° 1015.2 hPa 1.9 m/s 0.0 mm 22.6° 1018.9 hPa 2.2 m/s 27.7° 1012.8 hPa 3.2 m/s
20:00 22.8° 1016.7 hPa 2.9 m/s 0.0 mm 24.3° 1013.0 hPa 3.8 m/s 83.9 mm 22.8° 1015.5 hPa 2.9 m/s 0.0 mm 22.6° 1018.3 hPa 2.8 m/s 24.0° 1012.5 hPa 2.4 m/s
23:00 19.0° 1018.2 hPa 2.0 m/s 83.9 mm 19.0° 1014.2 hPa 2.3 m/s 83.9 mm 19.1° 1018.9 hPa 2.0 m/s 18.3° 1013.7 hPa 1.4 m/s
 04:42     22:05    Daglengte: 17:23 Woensdag 24 Jul
02:00 15.7° 1018.8 hPa 1.3 m/s 83.9 mm 16.7° 1014.4 hPa 1.7 m/s 83.9 mm 15.5° 1019.5 hPa 1.2 m/s 16.4° 1013.9 hPa 1.3 m/s
05:00 16.6° 1019.1 hPa 1.0 m/s 20.8 mm 16.8° 1019.6 hPa 1.1 m/s 14.6° 1014.0 hPa 0.8 m/s 20.8 mm
08:00 17.8° 1019.2 hPa 1.0 m/s 20.8 mm 17.5° 1019.6 hPa 1.0 m/s 20.7° 1014.4 hPa 0.5 m/s 20.8 mm
11:00 22.5° 1018.9 hPa 1.6 m/s 20.8 mm 22.1° 1019.3 hPa 1.7 m/s 26.9° 1015.1 hPa 1.1 m/s 20.8 mm
14:00 26.9° 1018.7 hPa 2.3 m/s 20.8 mm 26.6° 1019.0 hPa 2.4 m/s 30.6° 1015.1 hPa 0.8 m/s 20.8 mm
17:00 25.1° 1018.6 hPa 2.5 m/s 20.8 mm 24.7° 1018.9 hPa 2.5 m/s 29.6° 1014.9 hPa 2.3 m/s 20.8 mm
20:00 22.9° 1018.5 hPa 2.6 m/s 20.8 mm 22.8° 1018.8 hPa 2.6 m/s 23.8° 1015.1 hPa 2.6 m/s 20.8 mm
23:00 19.2° 1019.5 hPa 2.0 m/s 20.8 mm 19.4° 1019.7 hPa 2.0 m/s 17.0° 1017.1 hPa 1.5 m/s 20.8 mm
 04:44     22:03    Daglengte: 17:19 Donderdag 25 Jul
02:00 15.8° 1020.4 hPa 1.4 m/s 20.8 mm 15.9° 1020.6 hPa 1.4 m/s 14.9° 1018.2 hPa 1.1 m/s 20.8 mm
05:00 16.5° 1020.8 hPa 1.3 m/s 20.8 mm 16.7° 1021.0 hPa 1.3 m/s 14.2° 1018.5 hPa 1.1 m/s 20.8 mm
08:00 17.7° 1021.3 hPa 1.3 m/s 20.8 mm 17.5° 1021.5 hPa 1.2 m/s 19.3° 1019.0 hPa 2.2 m/s 20.8 mm
11:00 22.3° 1021.4 hPa 2.1 m/s 20.8 mm 22.1° 1021.5 hPa 1.9 m/s 24.8° 1019.3 hPa 4.0 m/s 20.8 mm
14:00 26.7° 1021.4 hPa 2.8 m/s 20.8 mm 26.6° 1021.6 hPa 2.6 m/s 27.2° 1019.3 hPa 4.7 m/s 20.8 mm
17:00 25.5° 1020.7 hPa 2.5 m/s 20.8 mm 25.4° 1020.9 hPa 2.3 m/s 26.6° 1018.7 hPa 4.3 m/s 20.8 mm
20:00 24.1° 1020.1 hPa 2.1 m/s 20.8 mm 24.2° 1020.2 hPa 2.0 m/s 23.6° 1018.8 hPa 3.0 m/s 20.8 mm
23:00 20.4° 1020.5 hPa 1.6 m/s 20.8 mm 20.7° 1020.5 hPa 1.6 m/s 17.6° 1020.3 hPa 1.7 m/s 20.8 mm
 04:46     22:01    Daglengte: 17:15 Vrijdag 26 Jul
02:00 17.1° 1020.9 hPa 1.2 m/s 20.8 mm 17.2° 1020.9 hPa 1.2 m/s 16.2° 1020.9 hPa 1.0 m/s 20.8 mm
05:00 18.6° 1020.7 hPa 1.0 m/s 20.8 mm 18.9° 1020.7 hPa 1.0 m/s 15.6° 1020.5 hPa 0.8 m/s 20.8 mm
08:00 20.6° 1020.5 hPa 0.8 m/s 20.8 mm 20.5° 1020.5 hPa 0.8 m/s 21.4° 1020.1 hPa 0.8 m/s 20.8 mm
11:00 24.8° 1019.9 hPa 1.8 m/s 20.8 mm 24.6° 1019.9 hPa 1.8 m/s 27.2° 1019.6 hPa 2.0 m/s 20.8 mm
14:00 28.8° 1019.2 hPa 2.8 m/s 20.8 mm 28.7° 1019.3 hPa 2.8 m/s 29.9° 1018.5 hPa 2.7 m/s 20.8 mm
17:00 27.8° 1018.7 hPa 2.1 m/s 20.8 mm 27.5° 1018.8 hPa 2.1 m/s 30.7° 1017.0 hPa 2.6 m/s 20.8 mm
20:00 26.2° 1018.2 hPa 1.6 m/s 20.8 mm 26.3° 1018.4 hPa 1.4 m/s 25.3° 1016.6 hPa 3.2 m/s 20.8 mm
23:00 22.3° 1018.7 hPa 1.4 m/s 20.8 mm 22.7° 1018.8 hPa 1.4 m/s 18.4° 1016.8 hPa 1.2 m/s 20.8 mm
 04:48     21:58    Daglengte: 17:10 Zaterdag 27 Jul
02:00 18.9° 1019.1 hPa 1.3 m/s 20.8 mm 19.1° 1019.3 hPa 1.4 m/s 16.9° 1017.0 hPa 0.6 m/s 20.8 mm
05:00 19.9° 1018.7 hPa 1.3 m/s 20.8 mm 20.1° 1018.8 hPa 1.4 m/s 17.2° 1016.5 hPa 0.7 m/s 20.8 mm
08:00 21.2° 1018.1 hPa 1.4 m/s 20.8 mm 21.2° 1018.4 hPa 1.4 m/s 21.4° 1015.2 hPa 1.4 m/s 20.8 mm
11:00 24.7° 1017.6 hPa 2.6 m/s 20.9 mm 24.8° 1017.9 hPa 2.5 m/s 24.5° 1014.4 hPa 3.2 m/s 20.9 mm
14:00 28.0° 1017.1 hPa 3.7 m/s 22.4 mm 28.3° 1017.4 hPa 3.7 m/s 24.9° 1013.3 hPa 3.7 m/s 22.4 mm
17:00 26.7° 1017.2 hPa 2.9 m/s 24.3 mm 27.1° 1017.6 hPa 2.9 m/s 22.9° 1012.3 hPa 4.0 m/s 24.3 mm
20:00 25.3° 1017.3 hPa 2.1 m/s 27.1 mm 25.9° 1017.8 hPa 2.0 m/s 18.2° 1012.0 hPa 3.2 m/s 27.1 mm
23:00 21.6° 1017.9 hPa 1.8 m/s 28.3 mm 22.2° 1018.4 hPa 1.8 m/s 15.0° 1012.4 hPa 2.5 m/s 28.3 mm
 04:50     21:56    Daglengte: 17:06 Zondag 28 Jul
02:00 18.1° 1018.5 hPa 1.5 m/s 28.3 mm 18.6° 1019.0 hPa 1.5 m/s 12.6° 1012.5 hPa 1.7 m/s 28.3 mm
08:00 19.4° 1016.2 hPa 2.5 m/s 28.3 mm 19.7° 1016.6 hPa 2.4 m/s 15.6° 1012.1 hPa 3.7 m/s 28.3 mm
14:00 25.0° 1014.7 hPa 3.5 m/s 28.3 mm 25.4° 1015.1 hPa 3.3 m/s 20.8° 1010.7 hPa 5.1 m/s 28.3 mm
20:00 22.3° 1014.3 hPa 2.9 m/s 28.3 mm 22.6° 1014.8 hPa 2.8 m/s 18.4° 1009.4 hPa 3.5 m/s 28.3 mm
 04:53     21:54    Daglengte: 17:01 Maandag 29 Jul
02:00 16.3° 1016.9 hPa 1.4 m/s 28.3 mm 16.7° 1017.3 hPa 1.4 m/s 11.3° 1012.1 hPa 1.7 m/s 28.3 mm
08:00 19.2° 1017.8 hPa 2.0 m/s 28.3 mm 19.5° 1018.2 hPa 2.1 m/s 15.5° 1013.5 hPa 1.0 m/s 28.3 mm
14:00 25.7° 1019.1 hPa 3.5 m/s 28.3 mm 25.9° 1019.6 hPa 3.5 m/s 23.1° 1013.7 hPa 3.6 m/s 28.3 mm
20:00 23.4° 1016.6 hPa 2.5 m/s 28.3 mm 23.7° 1016.8 hPa 2.6 m/s 20.6° 1014.6 hPa 1.6 m/s 28.3 mm
 04:55     21:51    Daglengte: 16:56 Dinsdag 30 Jul
02:00 16.2° 1017.6 hPa 2.0 m/s 28.3 mm 16.6° 1017.5 hPa 2.1 m/s 11.9° 1018.2 hPa 1.2 m/s 28.3 mm
08:00 17.2° 1015.8 hPa 2.5 m/s 28.3 mm 17.3° 1015.4 hPa 2.7 m/s 15.5° 1019.7 hPa 0.9 m/s 28.3 mm
14:00 23.4° 1020.0 hPa 2.5 m/s 28.3 mm 23.4° 1020.0 hPa 2.5 m/s 28.3 mm
20:00 20.7° 1012.8 hPa 2.5 m/s 0.3 mm
 04:57     21:49    Daglengte: 16:52 Woensdag 31 Jul
02:00 13.8° 1013.7 hPa 0.7 m/s 0.0 mm
08:00 16.2° 1013.5 hPa 0.3 m/s 0.0 mm
14:00 21.9° 1012.1 hPa 1.7 m/s 0.9 mm
20:00 20.1° 1010.6 hPa 1.3 m/s 1.9 mm
 05:00     21:46    Daglengte: 16:46 Donderdag 01 Aug
02:00 13.8° 1011.3 hPa 0.4 m/s 1.4 mm
08:00 14.8° 1011.1 hPa 0.4 m/s 0.4 mm
14:00 20.9° 1010.2 hPa 1.7 m/s 0.2 mm
20:00 19.8° 1009.3 hPa 2.4 m/s 0.4 mm
 05:02     21:44    Daglengte: 16:42 Vrijdag 02 Aug
02:00 13.1° 1010.7 hPa 0.8 m/s 0.0 mm
08:00 14.3° 1010.3 hPa 0.4 m/s 0.3 mm
14:00 20.4° 1009.0 hPa 1.4 m/s 0.2 mm
20:00 19.1° 1007.9 hPa 1.6 m/s 0.6 mm
 05:04     21:41    Daglengte: 16:37 Zaterdag 03 Aug
02:00 12.5° 1009.7 hPa 0.5 m/s 0.8 mm
08:00 14.2° 1009.8 hPa 1.0 m/s 0.8 mm
14:00 20.1° 1009.0 hPa 0.8 m/s 0.8 mm
20:00 18.3° 1008.3 hPa 1.3 m/s 0.8 mm
 05:07     21:39    Daglengte: 16:32 Zondag 04 Aug
02:00 12.2° 1009.8 hPa 0.0 m/s 0.5 mm
08:00 14.0° 1009.7 hPa 0.4 m/s 0.7 mm
14:00 19.5° 1009.1 hPa 1.1 m/s 0.7 mm
20:00 18.1° 1008.4 hPa 1.5 m/s 1.3 mm
FMI Hirlam - 7.5 km EWN WRFDA - 12 km DWD ICON - 7 km GFS - 25 km Basiskaart






























































Updatetijd (Europe/Amsterdam) Resolutie Lengte Stap
FMI Hirlam 19:00, 01:00, 07:00, 13:00 7.5 km 49h 1h
EWN WRFDA 22:00, 04:00, 10:00, 16:00 12 km 73h 1h
DWD ICON 23:45, 05:45, 11:45, 17:45 7 km 75h 1h
GFS 20:30, 02:30, 08:30, 14:30 25 km 237h 3h
30+ mm
25-30 mm
20-25 mm
15-20 mm
10-15 mm
6-10 mm
4-6 mm
2-4 mm
1-2 mm
0.5-1 mm
0.2-0.5 mm
0.1-0.2 mm
30+ mm
25-30 mm
20-25 mm
15-20 mm
10-15 mm
6-10 mm
4-6 mm
2-4 mm
1-2 mm
0.5-1 mm
0.2-0.5 mm
0.1-0.2 mm
Sneeuwval
Natte sneeuw
Hagel
Vorst
30+ mm
25-30 mm
20-25 mm
15-20 mm
10-15 mm
6-10 mm
4-6 mm
2-4 mm
1-2 mm
0.5-1 mm
0.2-0.5 mm
0.1-0.2 mm
Sneeuwval
Natte sneeuw
Hagel
Vorst
Onweer
50 mm
40 mm
30 mm
26 mm
22 mm
18 mm
14 mm
10 mm
9 mm
8 mm
7 mm
6 mm
5 mm
4.5 mm
4 mm
3.5 mm
3 mm
2.5 mm
2 mm
1.5 mm
1 mm
0.8 mm
0.6 mm
0.4 mm
0.2 mm
0.05 mm
35°
30°
25°
20°
15°
10°
-5°
-10°
-15°
-20°
-25°
-30°
-35°
120> km/h
105 km/h
90 km/h
75 km/h
60 km/h
50 km/h
40 km/h
30 km/h
20 km/h
10 km/h
0 km/h
2600 J/kg
2400 J/kg
2200 J/kg
2000 J/kg
1800 J/kg
1600 J/kg
1400 J/kg
1200 J/kg
1000 J/kg
800 J/kg
600 J/kg
400 J/kg
200 J/kg
70 dBZ
65 dBZ
60 dBZ
55 dBZ
50 dBZ
45 dBZ
40 dBZ
35 dBZ
30 dBZ
25 dBZ
20 dBZ
15 dBZ
10 dBZ
5 dBZ
-1 K
-2 K
-3 K
-4 K
-5 K
-6 K
-7 K
-8 K
-9 K
950 m²/s²
900 m²/s²
850 m²/s²
800 m²/s²
750 m²/s²
700 m²/s²
650 m²/s²
600 m²/s²
550 m²/s²
500 m²/s²
450 m²/s²
400 m²/s²
350 m²/s²
300 m²/s²
250 m²/s²
200 m²/s²
150 m²/s²
100 m²/s²
46 m/s
44 m/s
42 m/s
40 m/s
38 m/s
36 m/s
34 m/s
32 m/s
30 m/s
28 m/s
26 m/s
24 m/s
22 m/s
20 m/s
16 m/s
12 m/s
8 m/s
4 m/s
30 m/s
28 m/s
26 m/s
24 m/s
22 m/s
20 m/s
18 m/s
16 m/s
14 m/s
12 m/s
10 m/s
8 m/s
6 m/s
4 m/s
2 m/s
3.0
2.8
2.6
2.4
2.2
2.0
1.8
1.6
1.4
1.2
1.0
0.8
0.6
0.4
0.2
15
14
13
12
11
10
9
8
7
6
5
4
3
2
1
90%
80%
70%
60%
50%
40%
30%
20%
10%
42
40
38
36
34
32
30
28
26
24
22
20
18
16
14
12
90+ cm
80-90 cm
70-80 cm
60-70 cm
50-60 cm
40-50 cm
30-40 cm
20-30 cm
10-20 cm
1-10 cm
Sneeuwval
Natte sneeuw
Regen
>120 mm
115 mm
110 mm
105 mm
100 mm
95 mm
90 mm
85 mm
80 mm
75 mm
70 mm
65 mm
60 mm
55 mm
50 mm
45 mm
45 mm
40 mm
35 mm
30 mm
25 mm
20 mm
15 mm
10 mm
5 mm
0.1 mm
960 hPa
880 hPa
800 hPa
720 hPa
640 hPa
560 hPa
584 gpdm
568 gpdm
552 gpdm
536 gpdm
520 gpdm
504 gpdm
488 gpdm
Extreem zwaar Noodweer Kans op onweer
15% 15% 5% 50% 15%

Dag




Kaart






35°
30°
25°
20°
15°
10°
-5°
-10°
-15°
-20°
-25°
-30°
-35°
120> km/h
105 km/h
90 km/h
75 km/h
60 km/h
50 km/h
40 km/h
30 km/h
20 km/h
10 km/h
0 km/h
Extreem zwaar Noodweer Kans op onweer
15% 15% 5% 50% 15%
>120 mm
115 mm
110 mm
105 mm
100 mm
95 mm
90 mm
85 mm
80 mm
75 mm
70 mm
65 mm
60 mm
55 mm
50 mm
45 mm
45 mm
40 mm
35 mm
30 mm
25 mm
20 mm
15 mm
10 mm
5 mm
0.1 mm